Weather History for PHNY - November, 2012

Change the Weather History Date:

Sunday, November 18, 2012

  Actual Average Record
Temperature  
Mean Temperature 74 °F -  
Max Temperature 82 °F 78 °F 84 °F (2013)
Min Temperature 66 °F 63 °F 57 °F (1951)
Cooling Degree Days 9    
Growing Degree Days 24 (Base 50)    
Moisture  
Dew Point 62 °F    
Average Humidity 69    
Maximum Humidity 84    
Minimum Humidity 48    
Precipitation  
Precipitation 0.00 in - - ()
Sea Level Pressure  
Sea Level Pressure 30.07 in    
Wind  
Wind Speed 8 mph (North)    
Max Wind Speed 15 mph    
Max Gust Speed -    
Visibility 10 miles    
Events      
Averages and records for this station are not official NWS values.
T = Trace of Precipitation, MM = Missing Value Source: NWS Daily Summary

Daily Weather History Graph

Daily Weather History Graph

Search for Another Location

Airport or City:

Trip Planner

Search our weather history database for the weather conditions in past years. The results will help you decide how hot, cold, wet, or windy it might be!

Date:

Astronomy

Nov. 18, 2012 Rise Set
Actual Time 6:40 AM HST 5:46 PM HST
Civil Twilight 6:16 AM HST 6:09 PM HST
Nautical Twilight 5:49 AM HST 6:36 PM HST
Astronomical Twilight 5:23 AM HST 7:03 PM HST
Moon 11:23 AM HST (11/18) 11:05 PM HST (11/18)
Length of Visible Light 11h 52m
Length of Day
11h 05m
Waxing Crescent, 32% of the Moon is Illuminated
Nov 18
Waxing Crescent
Nov 20
First Quarter
Nov 28
Full
Dec 6
Last Quarter
Dec 12
New

Hourly Weather History & Observations

Time (HST) Temp. Heat Index Dew Point Humidity Pressure Visibility Wind Dir Wind Speed Gust Speed Precip Events Conditions
12:56 AM 68.9 °F - 63.0 °F 81% 30.07 in 10.0 mi ENE 8.1 mph - N/A   Clear
1:56 AM 66.9 °F - 61.9 °F 84% 30.06 in 10.0 mi NE 6.9 mph - N/A   Clear
2:56 AM 68.9 °F - 63.0 °F 81% 30.03 in 10.0 mi NE 15.0 mph - N/A   Clear
3:56 AM 68.0 °F - 61.0 °F 78% 30.04 in 10.0 mi ENE 9.2 mph - N/A   Clear
5:56 AM 66.9 °F - 61.0 °F 81% 30.06 in 10.0 mi ENE 4.6 mph - N/A   Clear
6:56 AM 68.0 °F - 61.9 °F 81% 30.06 in 10.0 mi NE 5.8 mph - N/A   Clear
7:56 AM 70.0 °F - 59.9 °F 70% 30.08 in 10.0 mi ESE 6.9 mph - N/A   Clear
8:56 AM 73.9 °F - 61.9 °F 66% 30.10 in 10.0 mi East 13.8 mph - N/A   Clear
9:56 AM 75.9 °F - 63.0 °F 64% 30.11 in 10.0 mi SSE 9.2 mph - N/A   Partly Cloudy
10:56 AM 75.2 °F - 60.8 °F 61% 30.15 in 10.0 mi Variable 5.8 mph - N/A   Partly Cloudy
11:43 AM 75.2 °F - 62.6 °F 65% 30.14 in 10.0 mi WNW 6.9 mph - N/A   Mostly Cloudy
11:56 AM 77.9 °F - 61.9 °F 58% 30.08 in 10.0 mi Variable 5.8 mph - N/A   Scattered Clouds
12:56 PM 77.9 °F - 61.9 °F 58% 30.04 in 10.0 mi Variable 4.6 mph - N/A   Mostly Cloudy
1:28 PM 80.6 °F 81.8 °F 62.6 °F 54% 30.09 in 10.0 mi West 10.4 mph - N/A   Mostly Cloudy
1:56 PM 82.4 °F 82.9 °F 60.8 °F 48% 30.09 in 10.0 mi WSW 10.4 mph - N/A   Partly Cloudy
2:56 PM 79.0 °F - 61.9 °F 56% 30.02 in 10.0 mi West 8.1 mph - N/A   Clear
3:56 PM 79.0 °F - 61.9 °F 56% 30.02 in 10.0 mi Variable 4.6 mph - N/A   Clear
4:38 PM 78.8 °F - 62.6 °F 57% 30.09 in 10.0 mi SW 6.9 mph - N/A   Mostly Cloudy
4:56 PM 78.8 °F - 62.6 °F 57% 30.09 in 10.0 mi South 6.9 mph - N/A   Mostly Cloudy
5:06 PM 77.0 °F - 62.6 °F 61% 30.10 in 10.0 mi South 5.8 mph - N/A   Scattered Clouds
5:28 PM 75.2 °F - 62.6 °F 65% 30.10 in 10.0 mi WNW 5.8 mph - N/A   Mostly Cloudy
5:56 PM 72.0 °F - 61.9 °F 70% 30.06 in 10.0 mi WNW 5.8 mph - N/A   Scattered Clouds
6:56 PM 70.9 °F - 63.0 °F 76% 30.06 in 10.0 mi NW 6.9 mph - N/A   Clear
7:56 PM 70.9 °F - 63.0 °F 76% 30.07 in 10.0 mi North 8.1 mph - N/A   Clear
8:56 PM 70.0 °F - 63.9 °F 81% 30.07 in 10.0 mi NNE 6.9 mph - N/A   Clear
9:56 PM 68.9 °F - 63.0 °F 81% 30.07 in 10.0 mi NNE 3.5 mph - N/A   Clear
10:56 PM 68.9 °F - 61.9 °F 78% 30.06 in 10.0 mi NW 3.5 mph - N/A   Clear
11:56 PM 68.9 °F - 63.9 °F 84% 30.05 in 10.0 mi North 5.8 mph - N/A   Clear